{"data":{"norad_id":66050,"intl_designator":"2025-233T","name":"QIANFAN-108","alt_names":[],"object_type":"PAYLOAD","status":"ACTIVE","operator":null,"country":"PRC","launch_date":"2025-10-17","launch_site_code":"TAISC","launch_vehicle":null,"mission":null,"orbit_class":"UNKNOWN","rcs_meters":null,"size_class":null,"mass_kg":null,"dimensions":null,"purposes":[],"wikipedia_slug":null,"has_3d_model":false,"image_url":null,"decayed_at":null,"tle_current":{"epoch":"2026-09-20T03:37:29.529408Z","epoch_age_seconds":170520,"freshness":"FRESH","line1":"1 66050U 25233T   26263.15103622  .00000075  00000+0  96891-4 0  9999","line2":"2 66050  89.0055  33.5762 0001676 109.2495 250.8838 13.51029201 46011","mean_motion":13.51029201,"eccentricity":0.0001676,"inclination_deg":89.0055,"raan_deg":33.5762,"arg_perigee_deg":109.2495,"mean_anomaly_deg":250.8838,"bstar":9.6891e-5,"rev_number":4601,"period_min":106.58540902996,"perigee_km":1067.2262310906,"apogee_km":1069.7223351927,"semimajor_km":7446.6112831417,"source":"CELESTRAK","updated_at":"2026-09-21T09:00:15.736231Z"}}}